Location: Flynn Junction
(40.1314°N, 99.5162°W)
Time: 21:56:51
(UTC+00:00)

Cosmos 2058 Rocket - Pass Details

Date: 29 October 2020
Orbit: 610 x 640 km, 82.5° (Epoch: 01 December)

Event Time Altitude Azimuth Distance (km) Brightness Sun altitude
Rises 12:13:20 0° 343° (NNW) 2,943 6.3 -10.4°
Reaches altitude 10° 12:15:43 10° 335° (NNW) 2,026 5.4 -9.9°
Maximum altitude 12:19:49 36° 269° (W) 1,006 3.6 -9.1°
Drops below altitude 10° 12:23:52 10° 203° (SSW) 1,996 5.6 -8.4°
Sets 12:26:12 0° 195° (SSW) 2,892 6.5 -8.0°
